Regional Weather Roundup
Issued by NWS Northern Indiana

Home | Current Version | Previous Version | Text Only | Print | Product List | Glossary On
Versions: 1 2 3 4 5 6 7 8 9 10 11 12 13 14 15 16 17 18 19 20 21 22 23 24 25 26 27 28 29 30 31 32 33 34 35 36 37 38 39 40 41 42 43 44 45 46 47 48 49 50
000
ASUS43 KIWX 290510
RWRIWX

KIWX WEATHER ROUNDUP
NATIONAL WEATHER SERVICE NORTHERN INDIANA
100 AM EDT FRI MAY 29 2015

NOTE: "FAIR" INDICATES FEW OR NO CLOUDS BELOW 12,000 FEET WITH NO
SIGNIFICANT WEATHER AND/OR OBSTRUCTIONS TO VISIBILITY.

* THESE STATIONS ARE NOT UNDER NWS QUALITY CONTROL. THEY ALSO MAY NOT
  REPORT WEATHER SUCH AS PRECIPITATION OR FOG.

INZ001>027-290600-
NORTHERN INDIANA

CITY           SKY/WX    TMP DP  RH WIND       PRES   REMARKS
GARY*          CLEAR     71  59  66 SE6       30.07S
VALPARAISO     PTCLDY    69  58  67 E8        30.09S
MICHIGAN CITY* PTCLDY    70  55  60 SE5       30.09S
LAPORTE*       PTCLDY    71  59  65 SE6       30.10S
KNOX*          PTCLDY    68  57  68 SE8       30.09S
SOUTH BEND     PTCLDY    71  56  58 SE13      30.10F
GOSHEN         CLEAR     68  57  68 SE10      30.12F
MONTICELLO*    PTCLDY    72  63  73 S6        30.08F
LOGANSPORT*    PTCLDY    66  55  68 S6        30.11S
ROCHESTER*     PTCLDY    70  61  73 SE5       30.11F
WARSAW*        PTCLDY    68  59  73 SE9       30.12F
ANGOLA*        CLEAR     64  55  72 SE8       30.15F
FORT WAYNE     MOCLDY    65  61  87 E7        30.14F
HUNTINGTON*    PTCLDY    66  61  83 E3        30.13F
PERU/GRISSOM   PTCLDY    70  63  78 S7        30.10F
MARION*        MOCLDY    69  60  73 SE3       30.13F

$$
INZ028>050-290600-
CENTRAL INDIANA

CITY           SKY/WX    TMP DP  RH WIND       PRES   REMARKS
LAFAYETTE      CLEAR     70  62  76 CALM      30.09S
KOKOMO*        PTCLDY    70  61  73 S7        30.11F
MUNCIE*        PTCLDY    71  62  73 S5        30.14F
INDIANAPOLIS   PTCLDY    70  62  76 SE8       30.10F

$$
MIZ043>046-050>051-056>058-064>065-071>073-077>080-290600-
SOUTHWEST LOWER MICHIGAN

CITY           SKY/WX    TMP DP  RH WIND       PRES   REMARKS
BATTLE CREEK   CLEAR     68  52  56 SE9       30.15F
BENTON HARBOR  PTCLDY    68  55  63 SE8       30.09F
COLDWATER*     CLEAR     65  51  61 SE8       30.16S
HILLSDALE*     CLEAR     64  54  69 SE8       30.18S
HOLLAND        PTCLDY    68  56  65 SE10      30.12S
GRAND RAPIDS   CLEAR     66  56  70 SE9       30.14S
KALAMAZOO      PTCLDY    67  54  63 SE5       30.13F
STURGIS*       PTCLDY    66  54  63 E10       30.13F
THREE RIVERS*  FAIR      68  54  60 SE7       30.13F

$$
OHZ001>008-015>018-024>025-290600-
NORTHWEST OHIO

CITY           SKY/WX    TMP DP  RH WIND       PRES   REMARKS
WAUSEON*       FAIR      66  57  72 E10       30.17F
DEFIANCE       CLEAR     66  57  72 E8        30.16F
FINDLAY        PTCLDY    68  58  70 E8        30.16F
TOLEDO EXPRESS MOCLDY    64  53  67 E6        30.16F
TOLEDO METCALF CLEAR     63  53  70 E8        30.18F
LIMA           PTCLDY    71  61  70 SE9       30.16F

$$
AND FOR LAKE MICHIGAN COASTAL AND OPEN LAKE BUOY OBSERVATIONS

STATION/POSITION TEMP    WIND        PRES    VSBY  WAVE
                 AIR SEA DIR/SP/G                  HT/PER
                 (F)     (DEG/KT/KT) (MB)    (MI)  (FT/S)
CALUMET HARBOR    62      90/  4/  5   N/A
MICHIGAN CITY     73     110/ 10/ 14   N/A
BURNS HARBOR      74     120/ 12/ 17 1018.6F
SAINT JOSEPH      70      CALM  /  5 1019.3F
SOUTH LAKE BUOY   48 38  110/  8/ 10 1019.2F         0
4 MI NW BRIDGMAN  67 57  160/ 12/ 14   N/A           1
MICHIGAN CITY     66 56  150/ 10/ 10   N/A           1

$$
&&


USA.gov is the U.S. government's official web portal to all federal, state and local government web resources and services.